NOAA NWS Hourly Roundups by Site

Regional Weather Roundup for San Diego, CA

To Select Another Site Choose from List

Select Site:  

000
ASUS46 KSGX 112211
RWRSGX

SAN DIEGO HOURLY WEATHER ROUNDUP
NATIONAL WEATHER SERVICE SAN DIEGO CA
300 PM PDT SAT JUL 11 2020

NOTE: "FAIR" INDICATES FEW OR NO CLOUDS BELOW 12,000 FEET WITH NO
SIGNIFICANT WEATHER AND/OR OBSTRUCTIONS TO VISIBILITY.

CAZ042-043-060-061-PZZ750-775-112300-

GREATER SAN DIEGO AREA

CITY           SKY/WX    TMP DP  RH WIND       PRES   REMARKS
SAN DIEGO AP   PTSUNNY   79  67  66 W15       29.97S
CHULA VISTA      N/A     82  72  71 W8        29.87S
BROWN FIELD    MOSUNNY   83  65  54 W10       29.97S
MIRAMAR MCAS   MOSUNNY   87  59  38 W13       29.96F
MONTGOMERY FLD MOSUNNY   88  59  37 NW9       29.96F
GILLESPIE FLD  SUNNY     95  48  20 NW12      29.94F
LEMON GROVE      N/A     90  66  45 CALM      29.91F

$$

NORTH SAN DIEGO COUNTY

CITY           SKY/WX    TMP DP  RH WIND       PRES   REMARKS
CAMP PENDLETON SUNNY     87  60  40 SW13      29.93S
OCEANSIDE AP   SUNNY     81  67  62 W10       29.94F
OCEANSIDE HBR    N/A     72  68  86 W8        30.03F
VISTA            N/A     86  65  49 W3        29.92F
CARLSBAD       SUNNY     78  62  57 VRB5      29.96S
ENCINITAS        N/A     79  69  71 SW7         N/A
LA JOLLA SCRIP   N/A     74  68  80 CALM      29.95F
FALLBROOK      FAIR      86  61  42 S9G17     29.97S
ESCONDIDO        N/A     93  58  30 CALM      29.93S
SAN MARCOS       N/A     85  62  44 NW1       29.98S
RANCHO BERNARD   N/A     88  63  43 SW3       29.93S
POWAY            N/A     93  60  32 W3        29.94F

$$

EAST SAN DIEGO COUNTY

CITY           SKY/WX    TMP DP  RH WIND       PRES   REMARKS
RAMONA         SUNNY     98  42  14 W15G22    29.98F
LA MESA          N/A     91  56  30 W9        29.89S
JAMUL            N/A     94  59  30 CALM      29.92F
DESCANSO N       N/A     97  54  23 S5        29.93F
CAMPO            N/A    100  54  21 W14       30.00F HX  98

$$

ORANGE COUNTY AND THE LOS ANGELES BASIN

CITY           SKY/WX    TMP DP  RH WIND       PRES   REMARKS
JOHN WAYNE AP  MOSUNNY   87  59  38 SW9       29.94S
LAGUNA BEACH     N/A     82  67  61 N2        29.93F
LAKE FOREST FR   N/A     96  56  25 W7        29.81S
HUNTINGTON BCH   N/A     77  67  71 W14       29.94F
FULLERTON      MOSUNNY  100  45  15 SW8       29.91F HX  96
LONG BEACH     SUNNY     91  52  26 W12       29.94S
L.A. AP        MOSUNNY   77  59  53 W15       29.96F
L.A. DOWNTOWN  SUNNY     89  53  29 W8        29.93F

$$

THE INLAND EMPIRE

CITY           SKY/WX    TMP DP  RH WIND       PRES   REMARKS
CORONA         SUNNY    102  54  20 W13G20    29.92F HX 100
UPLAND AP      FAIR      99  36  11 SW14G20   29.98F
CHINO          MOSUNNY  108  47  13 NW12      29.93F HX 104
ONTARIO        MOSUNNY  104  40  11 W14       29.94F HX  98
SAN BERNARDINO MOSUNNY  108  37   9 W7        29.95F HX 101
RIVERSIDE AP   SUNNY    104  46  14 W13G20    29.93F HX 100
MORENO VALLEY    N/A    105  44  12 W5        29.92F HX 101
MARCH ARB      MOSUNNY  104  46  13 NW10      29.97F HX 100
HORSETHIEF CYN   N/A    102  42  12 E2        29.89F HX  97
HEMET AP       FAIR     105  42  11 W8G18     29.96F HX 100
FRENCH VALLEY  FAIR     102  55  21 S18       29.96S HX 101
TEMECULA         N/A    100  57  24 SW6       29.94S HX  99

$$

SAN BERNARDINO AND RIVERSIDE COUNTY MOUNTAINS

CITY           SKY/WX    TMP DP  RH WIND       PRES   REMARKS
BIG BEAR AP    CLOUDY    82  45  26 SW6G16    30.41F
BIG BEAR LAKE    N/A     83  50  31 W3        29.91F
LK ARROWHEAD N   N/A     92  50  23 E5        29.86F
WRIGHTWOOD       N/A     87  50  27 CALM      29.88F
ANGELUS OAKS     N/A     87  53  30 CALM      29.82F
IDYLLWILD        N/A     91  46  21 S7        29.82F
GARNER VALLEY    N/A     99  55  22 SW1       29.85F HX  97
TORO PEAK        N/A     73  40  29 N2          N/A

$$

SOUTHERN DESERT INCLUDING THE COACHELLA VALLEY

CITY           SKY/WX    TMP DP  RH WIND       PRES   REMARKS
PALM SPRINGS   PTSUNNY  115  51  12 NW3       29.82F HX 112
THOUSAND PALMS   N/A    114  55  14 S8        29.76F HX 113
PALM DESERT      N/A    120  57  13 CALM      30.83S HX 119
INDIO            N/A    113  55  15 NW1       29.77F HX 112
THERMAL        PTSUNNY  111  67  24 E10       29.75F HX 118
BORREGO AP     FAIR     111  46  11 SE12      29.82F HX 107
OCOTILLO WELLS   N/A    111  56  16 E2        29.73F HX 111
CANEBRAKE        N/A    108  49  14 S2        29.73F HX 104
BLYTHE         MOSUNNY  111  53  14 S17       29.81F HX 109
IMPERIAL AP    MOSUNNY  103  64  28 SE16      29.80F HX 106
EL CENTRO NAS  PTSUNNY  105  62  24 SE16      29.81F HX 107
YUMA AZ        SUNNY    106  56  19 SW12G21   29.83F HX 105

$$

UPPER DESERT

CITY           SKY/WX    TMP DP  RH WIND       PRES   REMARKS
VICTORVILLE AP SUNNY    N/A N/A N/A S9        30.05F
HESPERIA         N/A    101  52  19 SW10      29.86F HX  99
APPLE VALLEY     N/A    102  61  26 NW15      29.89F HX 103
PALMDALE       SUNNY    103  36  10 SW14G21   30.04F HX  97
LANCASTER      SUNNY    106  31   7 W15G22    30.02F HX  99
EDWARDS AFB    MOSUNNY  106  38   9 SW18      29.98F HX  99
GRAY BUTTE AP  FAIR     104  43  12 W9G17     30.04F HX  99
DAGGETT        SUNNY    111  47  12 W15G25    29.94F HX 107
29 PALMS N       N/A    N/A N/A N/A MISG      30.01F
NEEDLES        MOSUNNY  119  40   7 SW7G17    29.81F HX 111

$$

REGIONAL REPORTS

CITY           SKY/WX    TMP DP  RH WIND       PRES   REMARKS
SANTA BARBARA  SUNNY     70  59  68 W15       29.97F
SANDBERG       SUNNY     97  31   9 SE14      30.23F
LAS VEGAS NV   PTSUNNY  111  46  11 SW13G23   29.93F HX 106
PHOENIX AZ     MOSUNNY  112  53  14 W21G28    29.80F HX 110
TIJUANA        MOSUNNY   82  66  57 W10       29.99S
ENSENADA NW      N/A     74  32  21 W14       29.91S

$$

OFFSHORE ISLANDS

CITY           SKY/WX    TMP DP  RH WIND       PRES   REMARKS
CATALINA ARPT  SUNNY     86  47  25 W9        30.04F
SAN CLEMENTE I   N/A     70  32  24 W10       30.00F
SAN NICOLAS IS SUNNY     84  55  36 N6        29.98F

$$

MARINE AND OFFSHORE BUOY REPORTS

STATION/POSITION SKY/WX   TEMP    WIND        PRES    VSBY  SWELL
                          AIR SEA DIR/SP/G                  HT/PER/DIR
                          (F)     (DEG/KT/KT) (MB)    (MI)  (FT/S/D)
TANNER BANKS               60     310/ 10/ 14 1016.1F         3/300/ 7
S CLEMENTE BASIN           67                 1014.8F         3/160/11
SAN NICOLAS IS.               63                N/A           2/190/12
SO. S. ROSA ISLA           59 65              1016.4F         3/310/ 7
W. S. BARBARA CH           57 60  300/ 14/ 17 1015.7F         3/300/ 7
M. S. BARBARA CH           60     270/ 12/ 14 1016.0F         2/270/ 8
S. MONICA BASIN            68 71  270/ 10/ 12 1015.0F         2/160/13
S PEDRO CHANNEL               70                N/A           2/160/11
OCEANSIDE OFFSHR              72                N/A           2/190/11
TORREY PINES OTR              71                N/A           2/190/12
SAN DIEGO BAY                 74              1014.3
POINT LOMA SOUTH              72                N/A           2/190/12

$$



 

View Past Reports for San Diego, CA.

Products Courtesy of NOAA-NWS
NWS Information Parsing Script by Ken True at Saratoga Weather - Script by SE Lincoln Weather.